Regional Weather Roundup
Issued by NWS

Home | Current Version | Previous Version | Graphics & Text | Print | Product List | Glossary On
Versions: 1 2 3 4 5 6 7 8 9 10 11 12 13 14 15 16 17 18 19 20 21 22 23 24 25 26 27 28 29 30 31 32 33 34 35 36 37 38 39 40 41 42 43 44 45 46 47 48 49 50
570
ASUS43 KTOP 221359
RWRKS

WEATHER ROUNDUP FOR KANSAS
NATIONAL WEATHER SERVICE GOODLAND KS
900 AM CDT FRI MAY 22 2015

NOTE:  "FAIR" INDICATES FEW OR NO CLOUDS BELOW 12,000 FEET WITH NO
SIGNIFICANT WEATHER AND/OR OBSTRUCTIONS TO VISIBILITY.

KSZ001>006-013>018-027>032-041>047-221500-
NORTHWEST KANSAS

CITY           SKY/WX    TMP DP  RH WIND       PRES   REMARKS
GOODLAND       LGT RAIN  47  46  97 SE15      30.08F FOG
HAYS           CLOUDY    50  43  76 SE18G25   30.15R
HILL CITY      LGT RAIN  50  48  93 SE7       30.18R
RUSSELL        LGT RAIN  51  49  92 E12       30.15F
$$

KSZ061>065-074>080-084>089-221500-
SOUTHWEST KANSAS

CITY           SKY/WX    TMP DP  RH WIND       PRES   REMARKS
DODGE CITY     CLOUDY    50  46  86 SE21      30.17F
ELKHART          N/A     50  44  80 S17         N/A
GARDEN CITY    CLOUDY    48  47  96 SE22      30.12S
GREAT BEND     CLOUDY    52  46  82 SE14G22   30.17F
LIBERAL        CLOUDY    52  46  82 SE20      30.13F
$$

KSZ066>073-081>083-090>101-221500-
SOUTHEAST KANSAS

CITY           SKY/WX    TMP DP  RH WIND       PRES   REMARKS
CHANUTE        CLOUDY    54  50  86 SE3       30.29R
COFFEYVILLE    CLOUDY    55  51  86 SE5       30.27S
HUTCHINSON     LGT RAIN  53  49  86 SE16G22   30.20F
NEWTON         CLOUDY    52  45  76 S8        30.27R
PARSONS        CLOUDY    55  51  86 CALM      30.29R
WICHITA INTL   RAIN      52  48  86 E9        30.22F FOG
WICHITA JABRA  RAIN      51  48  89 E5        30.24S
WINFIELD       LGT RAIN  52  49  89 E7        30.25F
$$

KSZ007>012-019>026-033>040-048>060-102>105-221500-
NORTHEAST KANSAS

CITY           SKY/WX    TMP DP  RH WIND       PRES   REMARKS
CONCORDIA      CLOUDY    54  46  74 S9        30.23F
EMPORIA        CLOUDY    52  48  86 SE5       30.26F
LAWRENCE       CLOUDY    54  50  86 CALM      30.29R
MANHATTAN      CLOUDY    51  48  89 CALM      30.25F
OLATHE IND     CLOUDY    56  49  77 SW8       30.29R
OLATHE EXE     CLOUDY    56  49  77 CALM      30.28R
SALINA         LGT RAIN  53  49  86 SE6       30.23F
TOPEKA BILLARD CLOUDY    54  49  83 CALM      30.28R
TOPEKA FORBES  CLOUDY    54  49  83 S3        30.27R
$$



USA.gov is the U.S. government's official web portal to all federal, state and local government web resources and services.